EW8804 La Poblachuela ES current weather conditions

sailwx.info

Wind from 259 at 2 knots gusting 5

Air temperature 9.4° C
Dewpoint 3.2° C

Last reported at 2019-Jan-16 16:02 UTC.
Time now 2019-Jan-16 16:29 UTC

Location: N 38°58' W 003°57'.
View on Google Maps.

See reports from other nearby stations

  
Tides and Currents Weather Stations Pressure Air Temp Water Temp Dewpoint Dewpoint Depression Visibility Wind Speed Wind Dir Waves Ship Positions
date/time (UTC)wind fromknots sea level pressurealtimeterstation pressurevisibilityair tempwater tempwave heightnotes
2019-Jan-16 16:07 260 1 gusting 5 9.4
2019-Jan-16 16:02 259 2 gusting 5 9.4
2019-Jan-16 15:57 259 1 gusting 5 9.4
2019-Jan-16 15:52 259 1 gusting 6 9.4
2019-Jan-16 15:47 259 1 gusting 7 9.4
2019-Jan-16 15:42 254 4 gusting 8 9.4
2019-Jan-16 15:37 263 3 gusting 9 9.4
2019-Jan-16 15:32 263 4 gusting 9 9.4
2019-Jan-16 15:27 267 4 gusting 6 9.4
2019-Jan-16 15:22 276 3 gusting 6 9.4
2019-Jan-16 15:17 281 1 gusting 5 9.4
2019-Jan-16 15:12 284 0 gusting 9 10.0
2019-Jan-16 15:07 275 1 gusting 9 9.4
2019-Jan-16 15:02 261 2 gusting 6 9.4
2019-Jan-16 14:57 260 0 gusting 7 10.0
2019-Jan-16 14:52 261 1 gusting 7 10.0
2019-Jan-16 14:47 260 1 gusting 5 9.4
2019-Jan-16 14:37 259 3 gusting 9 9.4
2019-Jan-16 14:32 265 1 gusting 7 9.4
2019-Jan-16 14:27 261 2 gusting 7 9.4
2019-Jan-16 14:22 261 2 gusting 10 9.4
2019-Jan-16 14:17 259 4 gusting 10 9.4
2019-Jan-16 14:12 263 3 gusting 13 9.4
2019-Jan-16 14:07 263 6 gusting 13 9.4
2019-Jan-16 14:02 263 5 gusting 9 9.4
2019-Jan-16 13:57 265 3 gusting 8 9.4
2019-Jan-16 13:52 259 2 gusting 9 9.4
2019-Jan-16 13:47 259 3 gusting 9 9.4
2019-Jan-16 13:42 271 3 gusting 8 9.4
2019-Jan-16 13:37 263 3 gusting 8 9.4
2019-Jan-16 13:32 261 3 gusting 9 9.4
2019-Jan-16 13:27 260 4 gusting 10 9.4
2019-Jan-16 13:22 261 4 gusting 10 10.0
2019-Jan-16 13:17 250 4 gusting 13 9.4
2019-Jan-16 13:12 258 4 gusting 13 10.0
2019-Jan-16 13:07 256 5 gusting 10 10.0
2019-Jan-16 13:02 266 3 gusting 10 9.4
2019-Jan-16 12:57 263 5 gusting 10 9.4
2019-Jan-16 12:52 255 5 gusting 9 9.4
2019-Jan-16 12:47 223 3 gusting 9 9.4
2019-Jan-16 12:42 242 3 gusting 11 9.4
2019-Jan-16 12:37 261 5 gusting 11 10.0
2019-Jan-16 12:32 264 6 gusting 11 10.0
2019-Jan-16 12:27 254 0 gusting 7 9.4
2019-Jan-16 12:22 259 4 gusting 7 9.4
2019-Jan-16 12:17 252 3 gusting 7 8.9
2019-Jan-16 12:12 250 4 gusting 7 8.9
2019-Jan-16 12:07 247 1 gusting 6 8.9
2019-Jan-16 12:02 259 4 gusting 6 8.9
2019-Jan-16 11:57 259 2 gusting 6 8.3
2019-Jan-16 11:52 257 2 gusting 10 8.3
2019-Jan-16 11:47 262 5 gusting 10 8.3
2019-Jan-16 11:42 269 7.8
2019-Jan-16 11:37 269 4 gusting 6 7.8
2019-Jan-16 11:32 269 3 gusting 7 7.8
2019-Jan-16 11:27 269 3 gusting 7 7.8
2019-Jan-16 11:22 274 2 gusting 6 7.8
2019-Jan-16 11:17 274 3 gusting 6 7.8
2019-Jan-16 11:12 261 2 gusting 6 8.3
2019-Jan-16 11:07 231 1 gusting 4 8.3
2019-Jan-16 11:02 227 2 gusting 4 8.3
2019-Jan-16 10:57 225 0 gusting 4 7.8
2019-Jan-16 10:52 225 0 gusting 5 7.8
2019-Jan-16 10:47 225 0 gusting 5 7.8
2019-Jan-16 10:42 220 2 gusting 5 7.8
2019-Jan-16 10:37 218 0 gusting 3 7.8
2019-Jan-16 10:32 218 0 gusting 3 7.8
2019-Jan-16 10:27 217 0 gusting 3 7.8
2019-Jan-16 10:22 217 7.8
2019-Jan-16 10:17 217 0 gusting 3 7.2
2019-Jan-16 10:12 217 7.2
2019-Jan-16 10:07 217 6.7
2019-Jan-16 10:02 217 3 gusting 4 6.7
2019-Jan-16 09:57 216 6.1
2019-Jan-16 09:52 216 6.1
2019-Jan-16 09:47 216 5.6
2019-Jan-16 09:42 216 5.6
2019-Jan-16 09:37 216 5.0
2019-Jan-16 09:32 216 4.4
2019-Jan-16 09:27 217 4.4
2019-Jan-16 09:22 217 3.9
2019-Jan-16 09:17 216 3.3
2019-Jan-16 09:12 217 3.3
2019-Jan-16 09:07 216 2.8
2019-Jan-16 09:02 216 2.2
2019-Jan-16 08:57 216 1.7
2019-Jan-16 08:52 217 1.1
2019-Jan-16 08:47 216 0.6
2019-Jan-16 08:42 216 -0.0
2019-Jan-16 08:37 216 -0.0
2019-Jan-16 08:32 216 -0.6
2019-Jan-16 08:27 216 -0.6
2019-Jan-16 08:22 216 -1.1
2019-Jan-16 08:17 216 -1.1
2019-Jan-16 08:12 216 -1.7
2019-Jan-16 08:07 216 -1.7
2019-Jan-16 08:02 216 -1.7
2019-Jan-16 07:57 216 -1.7
2019-Jan-16 07:52 216 -1.7
2019-Jan-16 07:47 216 -1.7
2019-Jan-16 07:42 216 -1.7
2019-Jan-16 07:37 216 -1.1
2019-Jan-16 07:32 216 -1.1
2019-Jan-16 07:27 216 -1.1
2019-Jan-16 07:22 216 -1.1
2019-Jan-16 07:17 216 -1.7
2019-Jan-16 07:12 216 -1.7
2019-Jan-16 07:07 216 -1.7
2019-Jan-16 07:02 216 -1.7
2019-Jan-16 06:57 216 -1.7
2019-Jan-16 06:52 216 -1.7
2019-Jan-16 06:47 216 -1.7
2019-Jan-16 06:42 216 -1.7
2019-Jan-16 06:37 216 -1.7
2019-Jan-16 06:32 216 -1.7
2019-Jan-16 06:27 216 -1.7
2019-Jan-16 06:22 216 -1.7
2019-Jan-16 06:17 216 -1.7
2019-Jan-16 06:12 216 -1.7
2019-Jan-16 06:07 216 -1.7
2019-Jan-16 06:02 216 -1.7
2019-Jan-16 05:57 216 -1.7
2019-Jan-16 05:52 216 -1.7
2019-Jan-16 05:47 216 -1.7
2019-Jan-16 05:42 216 -1.7
2019-Jan-16 05:37 216 -1.7
2019-Jan-16 05:32 216 -1.7
2019-Jan-16 05:27 216 -1.7
2019-Jan-16 05:22 216 -2.2
2019-Jan-16 05:17 216 -1.7
2019-Jan-16 05:12 216 -2.2
2019-Jan-16 05:07 216 -2.2
2019-Jan-16 05:02 216 -2.2
2019-Jan-16 04:57 216 -1.7
2019-Jan-16 04:52 216 -1.7
2019-Jan-16 04:47 216 -1.7
2019-Jan-16 04:42 216 -1.7
2019-Jan-16 04:37 216 -1.7
2019-Jan-16 04:32 216 -1.7
2019-Jan-16 04:27 216 -1.7
2019-Jan-16 04:22 216 -1.7
2019-Jan-16 04:17 216 -1.7
2019-Jan-16 04:12 216 -1.7
2019-Jan-16 04:07 216 -1.7
2019-Jan-16 04:02 216 -1.7
2019-Jan-16 03:57 216 -1.7
2019-Jan-16 03:52 216 -1.7
2019-Jan-16 03:47 216 -1.7
2019-Jan-16 03:42 216 -1.7
2019-Jan-16 03:37 216 -1.7
2019-Jan-16 03:32 216 -1.7
2019-Jan-16 03:27 216 -1.7
2019-Jan-16 03:22 216 -1.7
2019-Jan-16 03:17 216 -1.1
2019-Jan-16 03:12 216 -1.7
2019-Jan-16 03:07 216 -1.1
2019-Jan-16 03:02 216 -1.7
2019-Jan-16 02:57 216 -1.1
2019-Jan-16 02:52 216 -1.1
2019-Jan-16 02:47 216 -1.1
2019-Jan-16 02:42 216 -1.1
2019-Jan-16 02:37 216 -1.1
2019-Jan-16 02:32 216 -1.1
2019-Jan-16 02:27 216 -1.1
2019-Jan-16 02:22 216 -1.1
2019-Jan-16 02:17 216 -1.1
2019-Jan-16 02:12 216 -1.1
2019-Jan-16 02:07 216 -1.1
2019-Jan-16 02:02 216 -1.1
2019-Jan-16 01:57 216 -1.1
2019-Jan-16 01:52 216 -1.1
2019-Jan-16 01:47 216 -1.1
2019-Jan-16 01:42 216 -1.1
2019-Jan-16 01:37 216 -1.1
2019-Jan-16 01:32 216 -1.1
2019-Jan-16 01:27 216 -0.6
2019-Jan-16 01:22 216 -0.6
2019-Jan-16 01:17 216 -0.6
2019-Jan-16 01:12 216 -0.6
2019-Jan-16 01:07 216 -0.6
2019-Jan-16 01:02 216 -0.6
2019-Jan-16 00:57 216 -0.6
2019-Jan-16 00:52 216 -0.6
2019-Jan-16 00:47 216 -0.6
2019-Jan-16 00:42 216 -0.6
2019-Jan-16 00:37 216 -0.6
2019-Jan-16 00:32 216 -0.6
2019-Jan-16 00:27 216 -0.6
2019-Jan-16 00:22 216 -0.6
2019-Jan-16 00:17 216 -0.6
2019-Jan-16 00:12 216 -0.6
2019-Jan-16 00:07 216 -0.6
2019-Jan-16 00:02 216 -0.6
2019-Jan-15 23:57 216 -0.0
2019-Jan-15 23:52 216 -0.0
2019-Jan-15 23:47 216 -0.0
2019-Jan-15 23:42 216 -0.0
2019-Jan-15 23:37 216 -0.0
2019-Jan-15 23:32 216 -0.0
2019-Jan-15 23:27 216 -0.0
2019-Jan-15 23:22 216 -0.0
2019-Jan-15 23:17 216 -0.0
2019-Jan-15 23:12 216 -0.0
2019-Jan-15 23:07 216 -0.0
2019-Jan-15 23:02 216 -0.0
2019-Jan-15 22:57 216 0.6
2019-Jan-15 22:52 216 0.6
2019-Jan-15 22:47 216 0.6
2019-Jan-15 22:42 216 0.6
2019-Jan-15 22:37 216 0.6
2019-Jan-15 22:32 216 0.6
2019-Jan-15 22:27 216 0.6
2019-Jan-15 22:22 216 1.1
2019-Jan-15 22:17 216 1.1
2019-Jan-15 22:12 216 1.1
2019-Jan-15 22:07 216 1.1
2019-Jan-15 22:02 216 1.1
2019-Jan-15 21:57 216 1.7
2019-Jan-15 21:52 216 1.7
2019-Jan-15 21:47 216 1.7
2019-Jan-15 21:42 216 1.7
2019-Jan-15 21:37 216 1.7
2019-Jan-15 21:32 216 1.7
2019-Jan-15 21:27 216 1.7
2019-Jan-15 21:22 216 1.7
2019-Jan-15 21:17 216 2.2
2019-Jan-15 21:12 216 2.2
2019-Jan-15 21:07 216 2.2
2019-Jan-15 21:02 216 2.2
2019-Jan-15 20:57 216 2.2
2019-Jan-15 20:52 216 2.2
2019-Jan-15 20:47 216 2.8
2019-Jan-15 20:42 216 2.8
2019-Jan-15 20:37 216 2.8
2019-Jan-15 20:32 216 2.8
2019-Jan-15 20:27 216 2.8
2019-Jan-15 20:22 216 3.3
2019-Jan-15 20:17 216 3.3
2019-Jan-15 20:12 216 3.3
2019-Jan-15 20:07 216 3.3
2019-Jan-15 20:02 216 3.9
2019-Jan-15 19:57 216 3.9
2019-Jan-15 19:52 216 3.9
2019-Jan-15 19:47 216 4.4
2019-Jan-15 19:42 216 4.4
2019-Jan-15 19:37 216 4.4
2019-Jan-15 19:32 216 4.4
2019-Jan-15 19:27 216 5.0
2019-Jan-15 19:22 216 5.0
2019-Jan-15 19:17 216 5.0
2019-Jan-15 19:12 216 5.0
2019-Jan-15 19:07 216 5.0
2019-Jan-15 19:02 216 5.0
2019-Jan-15 18:57 216 5.6
2019-Jan-15 18:52 216 5.6
2019-Jan-15 18:47 216 5.6
2019-Jan-15 18:42 216 5.6
2019-Jan-15 18:37 216 5.6
2019-Jan-15 18:32 216 5.6
2019-Jan-15 18:27 216 6.1
2019-Jan-15 18:22 216 6.1
2019-Jan-15 18:17 216 6.7
2019-Jan-15 18:12 216 6.7
2019-Jan-15 18:07 216 6.7
2019-Jan-15 18:02 216 7.2
2019-Jan-15 17:57 216 7.2
2019-Jan-15 17:52 216 7.8
2019-Jan-15 17:47 216 7.8
2019-Jan-15 17:42 216 8.3
2019-Jan-15 17:37 216 8.9
2019-Jan-15 17:32 216 8.9
2019-Jan-15 17:27 216 9.4
2019-Jan-15 17:22 216 9.4
2019-Jan-15 17:17 216 10.0
2019-Jan-15 17:12 216 10.0
2019-Jan-15 17:07 216 10.6
2019-Jan-15 17:02 216 11.1
2019-Jan-15 16:57 216 11.1
2019-Jan-15 16:52 216 11.7
2019-Jan-15 16:47 216 11.7
2019-Jan-15 16:42 216 11.7
2019-Jan-15 16:37 216 12.2
2019-Jan-15 16:32 216 12.8
2019-Jan-15 16:27 216 12.8
2019-Jan-15 16:22 216 13.3
2019-Jan-15 16:17 216 13.3
2019-Jan-15 16:12 216 13.3
2019-Jan-15 16:07 216 13.3
2019-Jan-15 16:02 216 13.9
2019-Jan-15 15:57 216 13.9
2019-Jan-15 15:52 216 13.9
2019-Jan-15 15:47 216 13.9
2019-Jan-15 15:42 216 13.9
2019-Jan-15 15:37 216 13.9
2019-Jan-15 15:32 216 13.9
2019-Jan-15 15:27 216 13.9
2019-Jan-15 15:22 216 13.9
2019-Jan-15 15:17 216 13.9
2019-Jan-15 15:12 216 13.9
2019-Jan-15 15:07 216 13.9
2019-Jan-15 15:02 216 13.9
2019-Jan-15 14:57 216 13.9
2019-Jan-15 14:52 216 13.9
2019-Jan-15 14:47 216 13.9
2019-Jan-15 14:42 216 13.9
2019-Jan-15 14:37 216 13.9
2019-Jan-15 14:32 216 13.3
2019-Jan-15 14:27 216 13.3
2019-Jan-15 14:22 216 0 gusting 1 13.3
2019-Jan-15 14:17 216 12.8
2019-Jan-15 14:12 216 12.2
2019-Jan-15 14:07 216 12.2
2019-Jan-15 14:02 216 12.2
2019-Jan-15 13:57 216 11.7
2019-Jan-15 13:52 216 11.7
2019-Jan-15 13:47 216 11.7
2019-Jan-15 13:42 216 11.7
2019-Jan-15 13:37 217 11.1
2019-Jan-15 13:32 217 11.1
2019-Jan-15 13:27 217 11.1
2019-Jan-15 13:22 217 11.1
2019-Jan-15 13:17 217 10.6
2019-Jan-15 13:12 217 10.6
2019-Jan-15 13:07 217 10.6
2019-Jan-15 13:02 217 0 gusting 2 10.6
2019-Jan-15 12:57 217 10.6
2019-Jan-15 12:52 217 10.0
2019-Jan-15 12:47 217 10.0
2019-Jan-15 12:42 217 10.0
2019-Jan-15 12:37 217 9.4
2019-Jan-15 12:32 217 9.4
2019-Jan-15 12:27 219 9.4
2019-Jan-15 12:22 220 8.9
2019-Jan-15 12:17 220 0 gusting 4 8.9
2019-Jan-15 12:12 240 8.9
2019-Jan-15 12:07 242 8.9
2019-Jan-15 12:02 243 8.9
2019-Jan-15 11:57 243 8.3
2019-Jan-15 11:52 243 8.3
2019-Jan-15 11:47 244 8.3
2019-Jan-15 11:42 244 0 gusting 1 7.8
2019-Jan-15 11:37 245 7.8
2019-Jan-15 11:32 245 7.8
2019-Jan-15 11:27 245 7.2
2019-Jan-15 11:22 245 7.2
2019-Jan-15 11:17 248 7.2
2019-Jan-15 11:12 248 7.2
2019-Jan-15 11:07 249 7.2
2019-Jan-15 11:02 249 6.7
2019-Jan-15 10:57 249 6.7
2019-Jan-15 10:52 249 6.7
2019-Jan-15 10:47 251 6.1
2019-Jan-15 10:42 251 6.1
2019-Jan-15 10:37 251 5.6
2019-Jan-15 10:32 251 5.0
2019-Jan-15 10:27 251 5.0
2019-Jan-15 10:22 251 4.4
2019-Jan-15 10:17 251 4.4
2019-Jan-15 10:12 251 3.9
2019-Jan-15 10:07 251 3.3
2019-Jan-15 10:02 251 2.8
2019-Jan-15 09:57 251 2.8
2019-Jan-15 09:52 251 2.2
2019-Jan-15 09:47 251 2.2
2019-Jan-15 09:42 251 1.7
2019-Jan-15 09:37 251 1.1
2019-Jan-15 09:32 251 1.1
2019-Jan-15 09:27 251 0.6
2019-Jan-15 09:22 251 0.6
2019-Jan-15 09:17 251 -0.0
2019-Jan-15 09:12 251 -0.0
2019-Jan-15 09:07 251 -0.0
2019-Jan-15 09:02 251 -0.6
2019-Jan-15 08:57 251 -0.6
2019-Jan-15 08:52 251 -0.6
2019-Jan-15 08:47 251 -0.6
2019-Jan-15 08:42 251 -1.1
2019-Jan-15 08:37 251 -1.1
2019-Jan-15 08:32 251 -1.7
2019-Jan-15 08:27 251 -1.7
2019-Jan-15 08:22 251 -1.7
2019-Jan-15 08:17 251 -2.2
2019-Jan-15 08:12 251 -2.2
2019-Jan-15 08:07 251 -2.2
2019-Jan-15 08:02 251 -2.2
2019-Jan-15 07:57 251 -2.2
2019-Jan-15 07:52 251 -2.2
2019-Jan-15 07:47 251 -2.2
2019-Jan-15 07:42 251 -2.8
2019-Jan-15 07:37 251 -2.8
2019-Jan-15 07:32 251 -2.8
2019-Jan-15 07:27 251 -2.2
2019-Jan-15 07:22 251 -2.2
2019-Jan-15 07:17 251 -2.2
2019-Jan-15 07:12 251 -2.2
2019-Jan-15 07:07 251 -2.2
2019-Jan-15 07:02 251 -2.2
2019-Jan-15 06:57 251 -2.2
2019-Jan-15 06:52 251 -2.2
2019-Jan-15 06:47 251 -2.2
2019-Jan-15 06:42 251 -2.2
2019-Jan-15 06:37 251 -2.2
2019-Jan-15 06:32 251 -2.2
2019-Jan-15 06:27 251 -2.2
2019-Jan-15 06:22 251 -2.2
2019-Jan-15 06:17 251 -2.2
2019-Jan-15 06:12 251 -2.2
2019-Jan-15 06:07 251 -2.2
2019-Jan-15 06:02 251 -2.2
2019-Jan-15 05:57 251 -2.2
2019-Jan-15 05:52 251 -2.2
2019-Jan-15 05:47 251 -2.2
2019-Jan-15 05:42 251 -2.2
2019-Jan-15 05:37 251 -2.2
2019-Jan-15 05:32 251 -2.2
2019-Jan-15 05:27 251 -2.2
2019-Jan-15 05:22 251 -2.2
2019-Jan-15 05:17 251 -2.2
2019-Jan-15 05:12 251 -2.2
2019-Jan-15 05:07 251 -2.2
2019-Jan-15 05:02 251 -2.2
2019-Jan-15 04:57 251 -2.2
2019-Jan-15 04:52 251 -2.2
2019-Jan-15 04:47 251 -2.2
2019-Jan-15 04:42 251 -2.2
2019-Jan-15 04:37 251 -2.2
2019-Jan-15 04:32 251 -1.7
2019-Jan-15 04:27 251 -2.2
2019-Jan-15 04:22 251 -1.7
2019-Jan-15 04:17 251 -1.7
2019-Jan-15 04:12 251 -1.7
2019-Jan-15 04:07 251 -1.7
2019-Jan-15 04:02 251 -1.7
2019-Jan-15 03:57 251 -1.7
2019-Jan-15 03:52 251 -1.7
2019-Jan-15 03:47 251 -1.7
2019-Jan-15 03:42 251 -1.7
2019-Jan-15 03:37 251 -1.7
2019-Jan-15 03:32 251 -1.7
2019-Jan-15 03:27 251 -1.7
2019-Jan-15 03:22 251 -1.7
2019-Jan-15 03:17 251 -1.7
2019-Jan-15 03:12 251 -1.7
2019-Jan-15 03:07 251 -1.7
2019-Jan-15 03:02 251 -1.7
2019-Jan-15 02:57 251 -1.7
2019-Jan-15 02:52 251 -1.7
2019-Jan-15 02:47 251 -1.7
2019-Jan-15 02:42 251 -1.7
2019-Jan-15 02:37 251 -1.7
2019-Jan-15 02:32 251 -1.7
2019-Jan-15 02:27 251 -1.1
2019-Jan-15 02:22 251 -1.1
2019-Jan-15 02:17 251 -1.1
2019-Jan-15 02:12 251 -1.1
2019-Jan-15 02:07 251 -1.1
2019-Jan-15 02:02 251 -1.1
2019-Jan-15 01:57 251 -1.1
2019-Jan-15 01:52 251 -1.1
2019-Jan-15 01:47 251 -1.1
2019-Jan-15 01:42 251 -1.1
2019-Jan-15 01:37 251 -1.1
2019-Jan-15 01:32 251 -1.1
2019-Jan-15 01:27 251 -1.1
2019-Jan-15 01:22 251 -1.1
2019-Jan-15 01:17 251 -0.6
2019-Jan-15 01:12 251 -0.6
2019-Jan-15 01:07 251 -0.6
2019-Jan-15 01:02 251 -0.6
2019-Jan-15 00:57 251 -0.6
2019-Jan-15 00:52 251 -0.6
2019-Jan-15 00:47 251 -0.6
2019-Jan-15 00:42 251 -0.6
2019-Jan-15 00:37 251 -0.6
2019-Jan-15 00:32 251 -0.0
2019-Jan-15 00:27 251 -0.0
2019-Jan-15 00:22 251 -0.0
2019-Jan-15 00:17 251 -0.0
2019-Jan-15 00:12 251 -0.0
2019-Jan-15 00:07 251 -0.0
2019-Jan-15 00:02 251 -0.0
2019-Jan-14 23:57 251 -0.0
2019-Jan-14 23:52 251 -0.0
2019-Jan-14 23:47 251 0.6
2019-Jan-14 23:42 251 0.6
2019-Jan-14 23:37 251 0.6
2019-Jan-14 23:32 251 0.6
2019-Jan-14 23:27 251 0.6
2019-Jan-14 23:22 251 0.6
2019-Jan-14 23:17 251 0.6
2019-Jan-14 23:12 251 0.6
2019-Jan-14 23:07 251 1.1
2019-Jan-14 23:02 251 1.1
2019-Jan-14 22:57 251 1.1
2019-Jan-14 22:52 251 1.1
2019-Jan-14 22:47 251 1.1
2019-Jan-14 22:42 251 1.1
2019-Jan-14 22:37 251 1.1
2019-Jan-14 22:32 251 1.7
2019-Jan-14 22:27 251 1.7
2019-Jan-14 22:22 251 1.7
2019-Jan-14 22:17 251 1.7
2019-Jan-14 22:12 251 1.7
2019-Jan-14 22:07 251 1.7
2019-Jan-14 22:02 251 2.2
2019-Jan-14 21:57 251 2.2
2019-Jan-14 21:52 251 2.2
2019-Jan-14 21:47 251 2.2
2019-Jan-14 21:42 251 2.2
2019-Jan-14 21:37 251 2.2
2019-Jan-14 21:32 251 2.2
2019-Jan-14 21:27 251 2.8
2019-Jan-14 21:22 251 2.8
2019-Jan-14 21:17 251 2.8
2019-Jan-14 21:12 251 2.8
2019-Jan-14 21:07 251 2.8
2019-Jan-14 21:02 251 3.3
2019-Jan-14 20:57 251 3.3
2019-Jan-14 20:52 251 3.3
2019-Jan-14 20:47 251 3.3
2019-Jan-14 20:42 251 3.3
2019-Jan-14 20:37 251 3.3
2019-Jan-14 20:32 251 3.9
2019-Jan-14 20:27 251 3.9
2019-Jan-14 20:22 251 3.9
2019-Jan-14 20:17 251 4.4
2019-Jan-14 20:12 251 4.4
2019-Jan-14 20:07 251 4.4
2019-Jan-14 20:02 251 5.0
2019-Jan-14 19:57 251 5.0
2019-Jan-14 19:52 251 5.0
2019-Jan-14 19:47 251 5.6
2019-Jan-14 19:42 251 5.6
2019-Jan-14 19:37 251 5.6
2019-Jan-14 19:32 251 5.6
2019-Jan-14 19:27 251 6.1
2019-Jan-14 19:22 251 6.1
2019-Jan-14 19:17 251 6.1
2019-Jan-14 19:12 251 6.7
2019-Jan-14 19:07 251 6.7
2019-Jan-14 19:02 251 7.2
2019-Jan-14 18:57 251 7.2
2019-Jan-14 18:52 251 7.8
2019-Jan-14 18:47 251 7.8
2019-Jan-14 18:42 251 8.3
2019-Jan-14 18:37 251 8.3
2019-Jan-14 18:32 251 8.9
2019-Jan-14 18:27 251 8.9
2019-Jan-14 18:22 251 9.4
2019-Jan-14 18:17 251 9.4
2019-Jan-14 18:12 251 10.0
2019-Jan-14 18:07 251 10.6
2019-Jan-14 18:02 251 10.6
2019-Jan-14 17:57 251 11.1
2019-Jan-14 17:52 251 11.7
2019-Jan-14 17:47 251 12.2
2019-Jan-14 17:42 251 12.8
2019-Jan-14 17:37 251 13.3
2019-Jan-14 17:32 251 13.9
2019-Jan-14 17:27 251 13.9
2019-Jan-14 17:22 251 14.4
2019-Jan-14 17:17 251 15.6
2019-Jan-14 17:12 251 16.1
2019-Jan-14 17:07 251 16.7
2019-Jan-14 17:02 251 17.2
2019-Jan-14 16:57 251 17.8
2019-Jan-14 16:52 251 17.8
2019-Jan-14 16:47 251 18.3
2019-Jan-14 16:42 251 17.8
2019-Jan-14 16:37 251 17.8
2019-Jan-14 16:32 251 17.8
2019-Jan-14 16:27 251 17.8
2019-Jan-14 16:22 251 17.8
2019-Jan-14 16:17 251 17.8
2019-Jan-14 16:12 251 17.8
2019-Jan-14 16:07 251 17.8
2019-Jan-14 16:02 251 17.8